STARLINK-31697, 59583

Orbit data source: Space-Track

STARLINK-31697, 59583 is a payload satellite owned by SpaceX/Seattle (US) in LEO that was launched on Tue, 23 Apr 2024 UTC via an FALCON 9 launch vehicle from the Air Force Eastern Test Range (AFETR). Payload-class satellites include a variety of spacecraft equipped with specific instruments for various scientific and technological missions. These include communications satellites like Starlink; space stations such as the ISS; scientific satellites like the Hubble; Earth observation satellites from companies like Planet Labs, Umbra, and HawkEye 360; GPS; miniature CubeSats for education and research; and military/defense satellites.

Loading next visibility...
Identifier
59583, 2024-076V
Orbit
LEO
Country
Flag of USUS
Related business
Manufacturer
SpaceX/Seattle
Mission
Operational Commercial Communications
Bus & Motor
STARLINK V2M, Unknown motor
Mass
730 kg wet, ~700 kg dry
Launch date (UTC)
2024-04-23 (2 years ago)
Launch vehicle
FALCON 9
Launch site
Air Force Eastern Test Range (AFETR)
Object type
Payload
Rocket body
Debris
Shape & HBR
Box + 2 Pan, 17.7 m
Radar Cross Section
33.884 m², Large (>1 m²)

Expand to show TLE details & history
Last TLE update: 12 hours ago

TLE from 12 hours ago
0 STARLINK-31697
1 59583U 24076V   26035.73576995  .00000415  00000-0  24617-4 0  9990
2 59583  42.9976 195.0270 0001059 264.9481  95.1250 15.27577846101378
Epoch: 2026-02-04T17:39Z
TLE epoch observation values (Epoch: 2026-02-04T17:39:30.523Z)
Latitude
-0.00001°
Longitude
155.25173°
Altitude
482.896 km
Speed
7.626 km/s
True Right ascension
13h 00m 06s
True Declination
0° 00' 00"
Sunlit
Object was in full shadow at epoch
Visualization orbit readout
Latitude
Unknown
Longitude
Unknown
Altitude
Unknown
Speed
Unknown
Apparent Right ascension
Unknown
Apparent Declination
Unknown
Sunlit
N/A
Visualization observer readout
Local Sidereal Time
07:14:05
Azimuth
Unknown
Elevation
Unknown
Doppler factor
Unknown
Orbital elements
Apogee altitude
485.728 km
Perigee altitude
484.274 km
Semi-major axis
6,863.138 km
Eccentricity
0.00011
Inclination
42.9976°
RAAN
195.027°
Arg. of periapsis
264.9481°
True anomaly
95.13709°
Mean anomaly
95.125°
Eccentric anomaly
95.13104°
Mean motion
3.81732 °/min
Orbital period
94.31 mins
BSTAR
0.000024617
Loading maneuver chart data...
Computing Atmospheric mass density...
Loading historical data...
Loading historical data...
Loading historical data...
Loading historical data...
Loading historical data...
Loading historical data...
Loading historical data...

Documentation

Showing up to 5 results
|